Miscellaneous Local Product
Issued by NWS North Platte, NE

Home | Current Version | Previous Version | Text Only | Print | Product List | Glossary On
Versions: 1 2 3 4 5 6 7 8 9 10 11 12 13 14 15 16 17 18 19 20 21 22 23 24 25 26 27 28 29 30 31 32 33 34 35 36 37 38 39 40 41 42 43 44 45 46 47 48 49 50
000
AXUS43 KLBF 050710
MISLBF


WESTERN AND NORTH CENTRAL NEBRASKA HOURLY WEATHER ROUNDUP
NATIONAL WEATHER SERVICE NORTH PLATTE NE
200 AM CDT SUN JUL 05 2015

***STATIONS NOT REPORTING VARIABLES SUCH AS SKY/WEATHER OR
PRESSURE ARE PROVIDED BY THE NEBRASKA DEPARTMENT OF
ROADS...RAWS...AND APRS NETWORKS...AND ARE NOT UNDER
NATIONAL WEATHER SERVICE QUALITY CONTROL***

...OBSERVATIONS IN AND NEAR THE EASTERN PANHANDLE OF NEBRASKA...

CITY           SKY/WX    TMP DP  RH WIND       PRES   REMARKS
PINE RIDGE     CLEAR     70  58  65 E9        29.87F
CHADRON        PTCLDY    64  61  90 NE9       29.84R
ALLIANCE       PTCLDY    70  63  78 S7        29.87F
SIDNEY         MOCLDY    70  61  73 S5        29.92S
WHITECLAY        N/A     70  58  64 E14         N/A
CRESCENT LAKE    N/A     75  63  66 S9          N/A
BIG SPRINGS      N/A     75  65  72 S12         N/A
$$

...OBSERVATIONS IN NORTH CENTRAL NEBRASKA...

CITY           SKY/WX    TMP DP  RH WIND       PRES   REMARKS
VALENTINE      CLOUDY    78  53  41 W10       29.83R
THEDFORD       CLOUDY    77  65  66 S15G21    29.87S
AINSWORTH      CLOUDY    75  65  70 S12G20    29.86R
O`NEILL        MOCLDY    73  65  76 S13       29.88R
ORD            CLOUDY    73  62  68 SE6       29.88R
BROKEN BOW     CLOUDY    75  64  68 SE7       29.89S
VALENTINE NWR    N/A     84  60  44 SW21G30     N/A
SPRINGVIEW       N/A     75  66  75 CALM        N/A
HALSEY           N/A     77  64  63 S10G22      N/A
BREWSTER         N/A     80  68  67 S18         N/A
ROSE             N/A     85  80  86 S15         N/A  HX  98
NEWPORT          N/A     75  67  76 S12         N/A
SARGENT          N/A     71  64  80 CALM        N/A
CHAMBERS         N/A     69  64  83 S6          N/A
EWING            N/A     71  65  83 S5          N/A
$$

...OBSERVATIONS IN SOUTHWEST NEBRASKA AND FAR NORTHEAST COLORADO...

CITY           SKY/WX    TMP DP  RH WIND       PRES   REMARKS
WRAY           FAIR      74  59  59 S5        29.90F
HOLYOKE        FAIR      73  63  68 S7        29.90F
IMPERIAL       MOCLDY    76  61  59 SE12      29.88F
OGALLALA       PTCLDY    75  64  67 CALM      29.89R
NORTH PLATTE   PTCLDY    73  63  70 E13       29.88S
MCCOOK         MOCLDY    76  63  64 SE7       29.88S
LEXINGTON      MOCLDY    75  64  68 S16       29.88F
PAXTON           N/A     73  65  75 SE12        N/A
GOTHENBURG       N/A     75  60  60 S6          N/A
CALLAWAY         N/A     74  67  77 S14         N/A
$$

...NORTH PLATTE AREA...

CITY           SKY/WX    TMP DP  RH WIND       PRES   REMARKS
AIRPORT        PTCLDY    73  63  70 E13       29.88S
DOWNTOWN         N/A     76  65  68 SE5G14      N/A
HILLCREST        N/A     75  64  70 SE12        N/A
$$

...SOME WEATHER OBSERVATIONS FROM AROUND THE REGION...

CITY           SKY/WX    TMP DP  RH WIND       PRES   REMARKS
DENVER         PTCLDY    70  50  49 SW9       30.00F
LARAMIE        LGT RAIN  60  51  72 NW24G35   30.16R
CHEYENNE       MOCLDY    66  49  54 SW7       30.03F
SCOTTSBLUFF    MOCLDY    69  62  78 SE7       29.87S
RAPID CITY     CLEAR     66  61  84 S5        29.83S
PIERRE         CLEAR     74  68  81 SE5       29.73R
WINNER         FAIR      78  63  59 S20       29.76R
SIOUX FALLS    PTCLDY    71  62  73 S15G22    29.88S
OMAHA          PTCLDY    70  62  76 S9        29.95F
GRAND ISLAND   CLOUDY    72  63  73 S15       29.91F
KANSAS CITY    CLEAR     68  64  87 S9        30.00F FOG
WICHITA        PTCLDY    76  65  68 SE9       29.96S
HAYS           PTCLDY    75  63  64 S14       29.92S
LIBERAL        MOCLDY    73  63  68 S9        29.96S
GOODLAND       CLOUDY    74  61  63 S18       29.90F
$$



USA.gov is the U.S. government's official web portal to all federal, state and local government web resources and services.